This is the latest recevied weather packets stored in our database for station/object K7CTM. If no packets are shown the sender has not sent any weather packets the latest 10 day(s).
| Time | Temp. | Humidity | Pressure | Rain* | Wind** | Luminosity | Snow |
|---|---|---|---|---|---|---|---|
| 1778122617 | 17.78° C | 31% | 1019.1 hPa | 0 mm | - | 0 W/m² | - |
| 1778122314 | 17.78° C | 31% | 1019.3 hPa | 0 mm | - | 0 W/m² | - |
| 1778122012 | 17.78° C | 30% | 1019 hPa | 0 mm | - | 0 W/m² | - |
| 1778121709 | 18.33° C | 30% | 1019.1 hPa | 0 mm | - | 1 W/m² | - |
| 1778121404 | 18.33° C | 30% | 1019.1 hPa | 0 mm | - | 1 W/m² | - |
| 1778121102 | 18.33° C | 29% | 1019.1 hPa | 0 mm | - | 2 W/m² | - |
| 1778120799 | 18.33° C | 29% | 1019.1 hPa | 0 mm | - | 3 W/m² | - |
| 1778120494 | 18.33° C | 29% | 1019.3 hPa | 0 mm | - | 5 W/m² | - |
| 1778120191 | 18.89° C | 29% | 1019.3 hPa | 0 mm | - | 7 W/m² | - |
| 1778119886 | 18.89° C | 28% | 1019 hPa | 0 mm | - | 12 W/m² | - |
| 1778119585 | 18.89° C | 28% | 1019.1 hPa | 0 mm | - | 16 W/m² | - |
| 1778119281 | 18.89° C | 28% | 1019.1 hPa | 0 mm | - | 20 W/m² | - |
| 1778118979 | 18.89° C | 28% | 1019.3 hPa | 0 mm | - | 23 W/m² | - |
| 1778118676 | 18.89° C | 27% | 1019.1 hPa | 0 mm | - | 29 W/m² | - |
| 1778118373 | 18.89° C | 27% | 1019.1 hPa | 0 mm | - | 29 W/m² | - |
| 1778118069 | 19.44° C | 27% | 1019.3 hPa | 0 mm | - | 38 W/m² | - |
| 1778117766 | 19.44° C | 27% | 1019.4 hPa | 0 mm | - | 39 W/m² | - |
| 1778117463 | 19.44° C | 27% | 1019.4 hPa | 0 mm | - | 60 W/m² | - |
| 1778117160 | 19.44° C | 27% | 1019.5 hPa | 0 mm | - | 74 W/m² | - |
| 1778116855 | 19.44° C | 27% | 1019.5 hPa | 0 mm | - | 67 W/m² | - |
| 1778116554 | 18.89° C | 27% | 1019.3 hPa | 0 mm | - | 81 W/m² | - |
| 1778116245 | 19.44° C | 27% | 1019.3 hPa | 0 mm | - | 76 W/m² | - |
| 1778115944 | 18.89° C | 27% | 1019.5 hPa | 0 mm | - | 98 W/m² | - |
| 1778115641 | 18.89° C | 27% | 1019.4 hPa | 0 mm | - | 102 W/m² | - |
| 1778115339 | 19.44° C | 26% | 1019.5 hPa | 0 mm | - | 92 W/m² | - |
* Rain latest hour (hover to see other rain measurements)
** Current wind speed in m/s (hover to see current wind gust speed)